Regional Weather Roundup
Issued by NWS

Home | Current Version | Previous Version | Text Only | Print | Product List | Glossary On
Versions: 1 2 3 4 5 6 7 8 9 10 11 12 13 14 15 16 17 18 19 20 21 22 23 24 25 26 27
000
ASUS45 KBOU 172010
RWRCO

WEATHER ROUNDUP FOR COLORADO
NATIONAL WEATHER SERVICE DENVER/BOULDER CO
100 PM MST SUN DEC 17 2017

NOTE: "FAIR" INDICATES FEW OR NO CLOUDS BELOW 12000 FEET WITH NO
SIGNIFICANT WEATHER AND/OR OBSTRUCTIONS TO VISIBILITY.

COZ001>005-013-030-031-172100-
...NORTHWEST COLORADO...

CITY           SKY/WX    TMP DP  RH WIND       PRES   REMARKS
CRAIG          CLOUDY    30  21  69 W3        30.05F
HAYDEN         CLOUDY    29  22  75 VRB5      30.05F WCI  24
MEEKER         FAIR      37  19  48 W7        30.02F
RABBIT EARS PA CLOUDY    18  14  86 W6G21     29.96F FOG     WCI   9
STEAMBOAT SPGS CLOUDY    29  20  69 CALM      30.02F
WALDEN         FAIR      30  16  55 SW18      29.97F WCI  18
$$

COZ006>008-011-172100-
...WEST CENTRAL VALLEYS...

CITY           SKY/WX    TMP DP  RH WIND       PRES   REMARKS
GRAND JUNCTION FAIR      41  12  30 W3        30.04F
MONTROSE       FAIR      38   7  27 NW3       30.04F
EAGLE          FAIR      33  10  38 CALM      30.02F
RIFLE          FAIR      37  10  32 CALM      30.03F
DELTA          FAIR      40   8  25 CALM      30.03F
NUCLA          FAIR      37   0  20 CALM      30.06F
$$

COZ017>023-064>068-172100-
...SOUTHWEST COLORADO...

CITY           SKY/WX    TMP DP  RH WIND       PRES   REMARKS
DURANGO        FAIR      43   4  19 CALM      29.98F
CORTEZ         FAIR      46   4  17 VRB3      29.99F
PAGOSA SPRINGS FAIR      41  -3  15 CALM      29.99F
TELLURIDE      FAIR      37  -1  19 W12       30.01F
WOLF CREEK PAS FAIR      27   1  33 SW12G21   30.07S WCI  16
$$

COZ009-010-012-014-032>034-037-058>063-172100-
...CENTRAL COLORADO...

CITY           SKY/WX    TMP DP  RH WIND       PRES   REMARKS
ASPEN          FAIR      37   6  27 N7        29.96F
BUENA VISTA    FAIR      37   7  29 S5        29.93F
COPPER MTN     NOT AVBL
BERTHOUD PASS  FAIR      14   3  62 W29G38    29.91F WCI  -7
COTTONWOOD PAS FAIR      37   0  20 W6G16     29.95F
GUNNISON       FAIR      34   6  31 CALM      29.99F
KREMMLING      FAIR      34  16  47 CALM      30.00F
LEADVILLE      FAIR      32  -1  24 NW7       29.94F WCI  26
MONARCH PASS   FAIR      21   0  39 W38G45    30.06F WCI   1
SALIDA         FAIR      48  -1  13 SW20G26   30.00F
SUNLIGHT       FAIR      27   1  33 SW5G17    30.03F WCI  21
WILKERSON PASS FAIR      28   1  31 SW16G24   29.95F WCI  17
$$

COZ069>075-172100-
...SAN LUIS VALLEY/SANGRE DE CRISTO MOUNTAINS...

CITY           SKY/WX    TMP DP  RH WIND       PRES   REMARKS
ALAMOSA        FAIR      39  11  31 CALM      29.96F
DEL NORTE      FAIR      37  11  34 CALM      29.97F
LA VETA PASS   FAIR      34  10  37 S16G25      N/A  WCI  23
SAGUACHE       FAIR      37   9  30 S3        29.96F
$$

COZ035-036-038>040-172100-
...NORTHERN COLORADO FRONT RANGE...

CITY           SKY/WX    TMP DP  RH WIND       PRES   REMARKS
DENVER INTL AP PTSUNNY   37  23  56 VRB5      29.90F
DMNS CITY PARK NOT AVBL
AURORA         PTSUNNY   37  24  57 CALM      29.89F
FRONT RANGE AP NOT AVBL
ERIE MUNI ARPT FAIR      38  26  60 CALM      29.96F
BOULDER MUN AP FAIR      39  27  60 NE5       29.89F
CENTENNIAL     FAIR      37  24  59 S7        29.88F
BROOMFIELD     PTSUNNY   36  27  69 SE9       29.90F
FORT COLLINS   CLOUDY    35  26  69 W7        29.92F WCI  29
LONGMONT       PTSUNNY   42  27  57 SE3       29.92F
$$

COZ041-046-047-076>085-087-088-172100-
...PIKES PEAK/PALMER DIVIDE AND SOUTHERN FOOTHILLS...

CITY           SKY/WX    TMP DP  RH WIND       PRES   REMARKS
COLO. SPRINGS  CLOUDY    30  23  75 CALM      29.93F
A. F. ACADEMY  MOSUNNY   32  22  66 S3        29.90F
SCHRIEVER AFB  PTSUNNY   29  23  79 CALM      29.93F
CHEYENNE MTN   PTSUNNY   26  22  85 CALM      29.85F
ELLICOTT         N/A    N/A N/A N/A W7        29.92F
FALCON         FAIR      30  22  73 SW5       29.92F WCI  25
FORT CARSON    FAIR      31  22  69 CALM      29.92F
LIMON          FAIR      33  24  69 SW6       29.94F WCI  28
MONUMENT HILL  FAIR      30  21  69 CALM      29.91F
CANON CITY     FAIR      36  27  69 CALM      29.93F
WALSENBURG     FAIR      39  25  56 SE3       29.92F
TRINIDAD         N/A     37  24  59 E8        29.93F
$$

COZ042>045-048>051-090-091-172100-
...NORTHEAST COLORADO...

CITY           SKY/WX    TMP DP  RH WIND       PRES   REMARKS
GREELEY ARPT   CLOUDY    37  26  64 CALM      29.93F
AKRON          FAIR      36  26  67 NW8       29.92F
BURLINGTON     CLOUDY    37  26  64 NW9       29.97F
WRAY           CLOUDY    41  28  60 NW8       29.96F
YUMA           CLOUDY    36  27  69 NW7       29.94F
STERLING       FAIR      41  28  60 SW6       29.93F
HOLYOKE        PTSUNNY   43  28  56 W8        29.94F
FORT MORGAN    CLOUDY    40  25  56 SW5       29.93F
$$

COZ086-089-092>099-172100-
...SOUTHEAST COLORADO...

CITY           SKY/WX    TMP DP  RH WIND       PRES   REMARKS
PUEBLO         FAIR      36  25  64 W3        29.96F
LA JUNTA       PTSUNNY   39  26  59 NW3       29.97F
LAMAR          CLOUDY    41  25  53 N5        29.98F
SPRINGFIELD      N/A     40  27  59 N13       29.96F
$$




USA.gov is the U.S. government's official web portal to all federal, state and local government web resources and services.